FW1633 Weather Reports


time (UTC)temp
F
wind
direction
speed
knots
gust
knots
rain 1hr
in
rain 24hr
in
rain mn
in
humidity
%
barometer
mb
20260506123021 63 251 0.0 0.0 0.00 0.00 0.00 81 1010.7
20260506122504 63 205 0.0 0.0 0.00 0.00 0.00 81 1010.6
20260506122012 63 147 0.0 0.0 0.00 0.00 0.00 82 1010.8
20260506121526 63 156 0.0 0.0 0.00 0.00 0.00 82 1010.9
20260506121009 62 167 0.0 0.0 0.00 0.00 0.00 82 1010.9
20260506120505 62 76 0.0 0.0 0.00 0.00 0.00 83 1011.0
20260506120006 62 202 0.0 0.0 0.00 0.00 0.00 84 1010.8
20260506115503 61 242 0.0 0.0 0.00 0.00 0.00 84 1010.9
20260506115004 62 231 0.0 0.0 0.00 0.00 0.00 84 1011.0
20260506114519 62 263 0.0 0.0 0.00 0.00 0.00 84 1010.9
20260506114003 61 250 0.0 0.0 0.00 0.00 0.00 84 1010.9
20260506113503 61 234 0.0 0.0 0.00 0.00 0.00 85 1010.9
20260506113005 61 235 0.0 0.0 0.00 0.00 0.00 85 1010.9
20260506112502 61 226 0.0 0.0 0.00 0.00 0.00 86 1010.7
20260506112002 60 91 0.0 0.0 0.00 0.00 0.00 86 1010.7
20260506111503 60 232 0.0 0.0 0.00 0.00 0.00 86 1010.7
20260506111002 60 102 0.0 0.0 0.00 0.00 0.00 87 1010.7
20260506110506 59 281 0.0 0.0 0.00 0.00 0.00 87 1010.6
20260506110007 59 210 0.0 0.0 0.00 0.00 0.00 88 1010.7
20260506105503 59 147 0.0 0.0 0.00 0.00 0.00 88 1010.7
20260506105005 58 243 0.0 0.0 0.00 0.00 0.00 89 1010.8
20260506104510 58 175 0.0 0.0 0.00 0.00 0.00 89 1010.8
20260506104004 58 213 0.0 0.0 0.00 0.00 0.00 90 1010.7
20260506103503 57 240 0.0 0.0 0.00 0.00 0.00 90 1010.7
20260506103016 58 248 0.0 0.0 0.00 0.00 0.00 90 1010.7
20260506102507 57 69 0.0 0.0 0.00 0.00 0.00 90 1010.6
20260506102003 57 253 0.0 0.0 0.00 0.00 0.00 91 1010.6
20260506101504 57 236 0.0 0.0 0.00 0.00 0.00 91 1010.4
20260506101006 56 244 0.0 0.0 0.00 0.00 0.00 91 1010.3
20260506100502 56 261 0.0 0.0 0.00 0.00 0.00 91 1010.3
20260506100004 56 235 0.0 0.0 0.00 0.00 0.00 91 1010.3
20260506095503 56 143 0.0 0.0 0.00 0.00 0.00 91 1010.4
20260506095002 56 194 0.0 0.0 0.00 0.00 0.00 91 1010.4
20260506094513 56 229 0.0 0.0 0.00 0.00 0.00 91 1010.4
20260506094004 56 135 0.0 0.0 0.00 0.00 0.00 91 1010.3
20260506093507 56 211 0.0 0.0 0.00 0.00 0.00 91 1010.3
20260506093014 56 214 0.0 0.0 0.00 0.00 0.00 91 1010.3
20260506092503 56 226 0.0 0.0 0.00 0.00 0.00 91 1010.4
20260506092007 56 234 0.0 0.0 0.00 0.00 0.00 91 1010.5
20260506091520 56 158 0.0 0.0 0.00 0.00 0.00 91 1010.5
20260506091009 56 243 0.0 0.0 0.00 0.00 0.00 91 1010.6
20260506090504 56 225 0.0 0.0 0.00 0.00 0.00 90 1010.5
20260506090007 57 247 0.0 0.0 0.00 0.00 0.00 90 1010.6
20260506085502 57 221 0.0 0.0 0.00 0.00 0.00 90 1010.6
20260506085004 57 221 0.0 0.0 0.00 0.00 0.00 90 1010.6
20260506084516 57 168 0.0 0.0 0.00 0.00 0.00 90 1010.6
20260506084003 57 233 0.0 0.0 0.00 0.00 0.00 90 1010.6
20260506083503 57 236 0.0 0.0 0.00 0.00 0.00 90 1010.6
20260506083012 57 120 0.0 0.0 0.00 0.00 0.00 90 1010.6
20260506082503 57 231 0.0 0.0 0.00 0.00 0.00 90 1010.7
20260506082003 57 138 0.0 0.0 0.00 0.00 0.00 90 1010.7
20260506081514 57 234 0.0 0.0 0.00 0.00 0.00 90 1010.7
20260506081008 57 236 0.0 0.0 0.00 0.00 0.00 90 1010.7
20260506080507 57 214 0.0 0.0 0.00 0.00 0.00 90 1010.7
20260506073503 57 237 0.0 0.0 0.00 0.00 0.00 89 1010.7
20260506073008 57 163 0.0 0.0 0.00 0.00 0.00 89 1010.8
20260506072508 57 258 0.0 0.0 0.00 0.00 0.00 89 1010.8
20260506072004 57 169 0.0 0.0 0.00 0.00 0.00 89 1010.9
20260506071515 57 238 0.0 0.0 0.00 0.00 0.00 89 1010.9
20260506071008 57 129 0.0 0.0 0.00 0.00 0.00 89 1011.0
20260506070503 57 126 0.0 0.0 0.00 0.00 0.00 89 1010.9
20260506062503 58 110 0.0 0.0 0.00 0.00 0.00 88 1010.8
20260506062004 58 153 0.0 0.0 0.00 0.00 0.00 87 1010.8
20260506061508 58 128 0.0 0.0 0.00 0.00 0.00 87 1010.9
20260506061006 58 103 0.0 0.0 0.00 0.00 0.00 87 1010.8
20260506060506 58 233 0.0 0.0 0.00 0.00 0.00 87 1011.0
20260506051009 59 243 0.0 0.0 0.00 0.00 0.00 85 1011.4
20260506050508 59 270 0.0 0.0 0.00 0.00 0.00 85 1011.4
20260506045005 59 136 0.0 0.0 0.00 0.00 0.00 84 1011.4
20260506044518 59 63 0.0 0.0 0.00 0.00 0.00 84 1011.5
20260506044006 59 259 0.0 0.0 0.00 0.00 0.00 83 1011.5
20260506043503 59 256 0.0 0.0 0.00 0.00 0.00 83 1011.4
20260506043022 59 211 0.0 0.0 0.00 0.00 0.00 83 1011.5
20260506042506 59 238 0.0 0.0 0.00 0.00 0.00 83 1011.4
20260506042012 60 219 0.0 0.0 0.00 0.00 0.00 82 1011.4
20260506041529 60 164 0.0 0.0 0.00 0.00 0.00 82 1011.4
20260506041009 60 226 0.0 0.0 0.00 0.00 0.00 81 1011.3
20260506040510 60 213 0.0 0.0 0.00 0.00 0.00 81 1011.3
20260506040028 61 233 0.0 0.0 0.00 0.00 0.00 80 1011.3
20260506035508 61 238 0.0 0.0 0.00 0.00 0.00 79 1011.3
20260506035004 62 122 0.0 0.0 0.00 0.00 0.00 79 1011.4
20260506034511 62 155 0.0 0.0 0.00 0.00 0.00 78 1011.3
20260506034004 62 213 0.0 0.0 0.00 0.00 0.00 78 1011.3
20260506033503 62 212 0.0 0.0 0.00 0.00 0.00 77 1011.3
20260506033017 62 233 0.0 0.0 0.00 0.00 0.00 77 1011.3
20260506032504 63 255 0.0 0.0 0.00 0.00 0.00 76 1011.2
20260506032007 63 227 0.0 0.0 0.00 0.00 0.00 76 1011.2
20260506031526 63 152 0.0 0.0 0.00 0.00 0.00 76 1011.1
20260506031006 63 194 0.0 0.0 0.00 0.00 0.00 75 1011.2
20260506030508 63 250 0.0 0.0 0.00 0.00 0.00 75 1011.2
20260506030031 63 123 0.0 0.0 0.00 0.00 0.00 75 1011.2
20260506025508 63 143 0.0 0.0 0.00 0.00 0.00 75 1011.2
20260506025009 63 170 0.0 0.0 0.00 0.00 0.00 75 1011.2
20260506024527 63 124 0.0 0.0 0.00 0.00 0.00 75 1011.3
20260506024010 63 124 0.0 0.0 0.00 0.00 0.00 75 1011.2
20260506023507 63 210 0.0 0.0 0.00 0.00 0.00 75 1011.3
20260506023015 63 239 0.0 0.0 0.00 0.00 0.00 75 1011.2
20260506022506 63 224 0.0 0.0 0.00 0.00 0.00 75 1011.2
20260506022004 63 160 0.0 0.0 0.00 0.00 0.00 74 1011.2
20260506021520 64 237 0.0 0.0 0.00 0.00 0.00 74 1011.2
20260506021008 64 236 0.0 0.0 0.00 0.00 0.00 74 1011.2
20260506020510 64 248 0.0 0.0 0.00 0.00 0.00 74 1011.2
20260506020024 64 230 0.0 0.0 0.00 0.00 0.00 74 1011.2
20260506015507 64 245 0.0 0.0 0.00 0.00 0.00 73 1011.3
20260506015006 65 101 0.0 0.0 0.00 0.00 0.00 73 1011.2
20260506014541 65 211 0.0 0.0 0.00 0.00 0.00 72 1011.1
20260506014009 65 231 0.0 0.0 0.00 0.00 0.00 72 1011.0
20260506013510 65 182 0.0 0.0 0.00 0.00 0.00 71 1010.8
20260506013030 65 228 0.0 0.0 0.00 0.00 0.00 71 1010.8
20260506012508 66 75 0.0 0.0 0.00 0.00 0.00 71 1010.9
20260506012009 66 227 0.0 0.0 0.00 0.00 0.00 71 1010.8
20260506011528 66 206 0.0 0.0 0.00 0.00 0.00 71 1010.7
20260506011005 66 226 0.0 0.0 0.00 0.00 0.00 70 1010.7
20260506010505 67 117 0.0 0.0 0.00 0.00 0.00 69 1010.6
20260506010027 67 160 0.0 0.0 0.00 0.00 0.00 69 1010.4
20260506005507 67 135 0.0 0.0 0.00 0.00 0.00 69 1010.4
20260506005010 67 205 0.0 0.0 0.00 0.00 0.00 69 1010.4
20260506004535 67 215 0.0 0.0 0.00 0.00 0.00 70 1010.2
20260506004007 67 204 0.0 0.0 0.00 0.00 0.00 70 1010.3
20260506003507 66 224 0.0 0.0 0.00 0.00 0.00 71 1010.3
20260506003027 66 125 0.0 0.0 0.00 0.00 0.00 71 1010.2
20260506002511 66 292 0.0 0.0 0.00 0.00 0.00 72 1010.2
20260506002010 65 193 0.0 0.0 0.00 0.00 0.00 72 1010.2
20260506001528 65 249 0.0 0.0 0.00 0.00 0.00 72 1010.2
20260506001008 65 237 0.0 0.0 0.00 0.00 0.00 72 1010.2
20260506000510 65 236 0.0 0.0 0.00 0.00 0.00 72 1010.2
20260506000036 66 215 0.0 0.0 0.00 0.00 0.00 72 1010.0
20260505235511 66 217 0.0 0.0 0.00 0.00 0.00 72 1010.0
20260505235006 66 224 0.0 0.0 0.00 0.00 0.00 72 1009.9
20260505234520 65 232 0.0 0.0 0.00 0.00 0.00 72 1009.9
20260505234006 65 226 0.0 0.0 0.00 0.00 0.00 72 1009.9
20260505233511 65 136 0.0 0.0 0.00 0.00 0.00 72 1009.8
20260505233023 65 251 0.0 0.0 0.00 0.00 0.00 72 1009.6
20260505232509 66 237 0.0 0.0 0.00 0.00 0.00 71 1009.6
20260505232011 66 233 0.0 0.0 0.00 0.00 0.00 71 1009.6
20260505231525 66 291 0.0 0.0 0.00 0.00 0.00 71 1009.5
20260505231008 66 57 0.0 0.0 0.00 0.00 0.00 70 1009.4
20260505230509 67 219 0.0 0.0 0.00 0.00 0.00 70 1009.3
20260505230033 67 250 0.0 0.0 0.00 0.00 0.00 70 1009.1
20260505225511 67 98 0.0 0.0 0.00 0.00 0.00 70 1009.1
20260505225012 67 139 0.0 0.0 0.00 0.00 0.00 70 1008.9
20260505224536 67 151 0.0 0.0 0.00 0.00 0.00 70 1008.8
20260505224013 68 247 0.0 0.0 0.00 0.00 0.00 69 1008.8
20260505223509 68 231 0.0 0.0 0.00 0.00 0.00 68 1008.9
20260505223036 69 218 0.0 0.0 0.00 0.00 0.00 67 1009.0
20260505222507 69 152 0.0 0.0 0.00 0.00 0.00 66 1009.0
20260505222010 70 136 0.0 0.0 0.00 0.00 0.00 66 1008.9
20260505221525 71 190 0.0 0.0 0.00 0.00 0.00 65 1008.7
20260505221006 71 214 0.0 0.0 0.00 0.00 0.00 65 1008.6
20260505220507 71 211 0.0 0.0 0.00 0.00 0.00 65 1008.7
20260505220037 71 199 0.0 0.0 0.00 0.00 0.00 65 1008.7
20260505215515 71 231 0.0 0.0 0.00 0.00 0.00 65 1008.7
20260505215004 71 188 0.0 0.0 0.00 0.00 0.00 65 1008.6
20260505214503 71 188 0.0 0.0 0.00 0.00 0.00 65 1008.7
20260505214006 70 208 0.0 0.0 0.00 0.00 0.00 65 1008.5
20260505213502 70 210 0.0 0.0 0.00 0.00 0.00 65 1008.5
20260505213003 70 105 0.0 0.0 0.00 0.00 0.00 65 1008.4
20260505212503 70 214 0.0 0.0 0.00 0.00 0.00 65 1008.4
20260505212002 71 117 0.0 0.0 0.00 0.00 0.00 64 1008.5
20260505211504 71 112 0.0 0.0 0.00 0.00 0.00 64 1008.5
20260505211004 71 164 0.0 0.0 0.00 0.00 0.00 63 1008.4
20260505210503 71 240 0.0 0.0 0.00 0.00 0.00 63 1008.3
20260505210009 72 292 0.0 0.0 0.00 0.00 0.00 63 1008.3
20260505205507 72 186 0.0 0.0 0.00 0.00 0.00 63 1008.3
20260505205009 72 189 0.0 0.0 0.00 0.00 0.00 63 1008.3
20260505204505 71 267 0.0 0.0 0.00 0.00 0.00 64 1008.4
20260505204002 71 174 0.0 0.0 0.00 0.00 0.00 64 1008.5
20260505203502 72 220 0.0 0.0 0.00 0.00 0.00 63 1008.5
20260505203003 72 131 0.0 0.0 0.00 0.00 0.00 62 1008.3
20260505202503 73 241 0.0 0.0 0.00 0.00 0.00 61 1008.4
20260505202003 73 164 0.0 0.0 0.00 0.00 0.00 60 1008.4
20260505201504 74 239 0.0 0.0 0.00 0.00 0.00 60 1008.4
20260505201003 74 236 0.0 0.0 0.00 0.00 0.00 60 1008.6
20260505200506 74 181 0.0 0.0 0.00 0.00 0.00 60 1008.7
20260505200009 74 185 0.0 0.0 0.00 0.00 0.00 59 1008.7
20260505195503 75 83 0.0 0.0 0.00 0.00 0.00 59 1008.6
20260505195003 76 152 0.0 0.0 0.00 0.00 0.00 59 1008.8
20260505194510 75 72 0.0 0.0 0.00 0.00 0.00 59 1008.8
20260505194005 75 212 0.0 0.0 0.00 0.00 0.00 60 1009.1
20260505193503 75 238 0.0 0.0 0.00 0.00 0.00 60 1009.2
20260505193035 75 132 0.0 0.0 0.00 0.00 0.00 59 1009.2
20260505192502 74 154 0.0 0.0 0.00 0.00 0.00 61 1009.2
20260505192002 73 240 0.0 0.0 0.00 0.00 0.00 61 1009.4
20260505191503 73 204 0.0 0.0 0.00 0.00 0.00 61 1009.4
20260505191004 73 83 0.0 0.0 0.00 0.00 0.00 61 1009.6
20260505190503 73 207 0.0 0.0 0.00 0.00 0.00 61 1009.7
20260505190013 73 162 0.0 0.0 0.00 0.00 0.00 62 1009.8
20260505185506 73 226 0.0 0.0 0.00 0.00 0.00 62 1009.9
20260505185004 72 205 0.0 0.0 0.00 0.00 0.00 63 1010.1
20260505184506 72 221 0.0 0.0 0.00 0.00 0.00 63 1010.0
20260505184004 73 206 0.0 0.0 0.00 0.00 0.00 61 1010.2
20260505183503 72 229 0.0 0.0 0.00 0.00 0.00 62 1010.2
20260505183022 73 163 0.0 0.0 0.00 0.00 0.00 61 1010.3
20260505182503 73 200 0.0 0.0 0.00 0.00 0.00 62 1010.3
20260505182007 73 109 0.0 0.0 0.00 0.00 0.00 62 1010.3
20260505181521 73 138 0.0 0.0 0.00 0.00 0.00 61 1010.3
20260505181014 74 109 0.0 0.0 0.00 0.00 0.00 62 1010.3
20260505180501 74 172 0.0 0.0 0.00 0.00 0.00 62 1010.5
20260505180003 74 149 0.0 0.0 0.00 0.00 0.00 61 1010.5
20260505175500 74 113 0.0 0.0 0.00 0.00 0.00 61 1010.5
20260505175001 73 123 0.0 0.0 0.00 0.00 0.00 62 1010.5
20260505174505 73 153 0.0 0.0 0.00 0.00 0.00 62 1010.6
20260505174004 73 91 0.0 0.0 0.00 0.00 0.00 62 1010.6
20260505173504 73 140 0.0 0.0 0.00 0.00 0.00 62 1010.7
20260505173008 73 117 0.0 0.0 0.00 0.00 0.00 61 1010.7
20260505172503 74 120 0.0 0.0 0.00 0.00 0.00 60 1010.7
20260505172003 74 213 0.0 0.0 0.00 0.00 0.00 59 1010.7
20260505171526 74 138 0.0 0.0 0.00 0.00 0.00 58 1010.6
20260505171003 75 181 0.0 0.0 0.00 0.00 0.00 56 1010.7
20260505170505 77 132 0.0 0.0 0.00 0.00 0.00 56 1010.8
20260505170021 78 228 0.0 0.0 0.00 0.00 0.00 55 1010.8
20260505165504 77 99 0.0 0.0 0.00 0.00 0.00 54 1010.8
20260505165003 77 164 0.0 0.0 0.00 0.00 0.00 56 1010.9
20260505164504 77 150 0.0 0.0 0.00 0.00 0.00 55 1010.9
20260505164000 77 141 0.0 0.0 0.00 0.00 0.00 55 1011.0
20260505163504 77 74 0.0 0.0 0.00 0.00 0.00 56 1011.0
20260505163009 76 217 0.0 0.0 0.00 0.00 0.00 56 1011.1
20260505162502 77 190 0.0 0.0 0.00 0.00 0.00 55 1011.1
20260505162004 77 274 0.0 0.0 0.00 0.00 0.00 56 1011.2
20260505161512 77 101 0.0 0.0 0.00 0.00 0.00 55 1011.2
20260505161004 76 231 0.0 0.0 0.00 0.00 0.00 55 1011.3
20260505160504 76 233 0.0 0.0 0.00 0.00 0.00 54 1011.4
20260505153008 74 17 0.0 0.0 0.00 0.00 0.00 59 1011.7
20260505152503 74 216 0.0 0.0 0.00 0.00 0.00 59 1011.8
20260505152006 74 230 0.0 0.0 0.00 0.00 0.00 60 1011.6
20260505151508 73 238 0.0 0.0 0.00 0.00 0.00 61 1011.6
20260505151007 73 169 0.0 0.0 0.00 0.00 0.00 61 1011.7
20260505150504 73 145 0.0 0.0 0.00 0.00 0.00 60 1011.9
20260505140509 72 165 0.0 0.0 0.00 0.00 0.00 60 1012.0
20260505125009 67 234 0.0 0.0 0.00 0.00 0.00 68 1011.6
20260505124517 67 166 0.0 0.0 0.00 0.00 0.00 69 1011.7
20260505124009 67 196 0.0 0.0 0.00 0.00 0.00 70 1011.7
20260505123501 67 191 0.0 0.0 0.00 0.00 0.00 70 1011.8